Location: Caltech
(34.1382°N, 118.1253°W)
Time: 08:01:22
(UTC-07:00)

Cosmos 2219 Rocket - Visible Passes

Search period start: 30 April 2016 00:00
Search period end: 10 May 2016 00:00
Orbit: 828 x 847 km, 71.0° (Epoch: 28 April)

Date Brightness Start Highest point End Pass type
(mag) Time Alt. Az. Time Alt. Az. Time Alt. Az.
30 Apr 4.5 00:46:34 17° NNE 00:46:34 17° NNE 00:47:51 10° NNE visible
30 Apr 4.4 02:28:16 16° NW 02:28:16 16° NW 02:30:25 10° NNW visible
01 May 4.6 00:30:22 16° NE 00:30:22 16° NE 00:31:29 10° NNE visible
01 May 4.4 02:12:03 17° NNW 02:12:03 17° NNW 02:14:15 10° NNW visible
02 May 4.6 00:14:06 15° NE 00:14:06 15° NE 00:15:06 10° NNE visible
02 May 4.4 01:55:48 18° NNW 01:55:48 18° NNW 01:58:04 10° N visible
02 May 4.6 23:57:50 15° NE 23:57:50 15° NE 23:58:43 10° NE visible
03 May 4.4 01:39:32 19° NNW 01:39:32 19° NNW 01:41:53 10° N visible
03 May 4.6 23:41:30 14° NE 23:41:30 14° NE 23:42:20 10° NE visible
04 May 4.3 01:23:11 20° NNW 01:23:11 20° NNW 01:25:40 10° N visible
04 May 4.5 23:25:08 14° NE 23:25:08 14° NE 23:25:55 10° NE visible
05 May 4.3 01:06:49 21° NNW 01:06:49 21° NNW 01:09:28 10° N visible
05 May 4.5 23:08:43 14° NE 23:08:43 14° NE 23:09:31 10° NE visible
06 May 4.2 00:50:24 23° NNW 00:50:24 23° NNW 00:53:14 10° N visible
06 May 4.4 22:52:14 14° NE 22:52:14 14° NE 22:53:05 10° NE visible
07 May 4.1 00:33:55 25° NNW 00:33:55 25° NNW 00:37:00 10° N visible
07 May 4.3 22:35:42 14° NE 22:35:42 14° NE 22:36:38 10° NE visible
08 May 3.9 00:17:22 28° NNW 00:17:22 28° NNW 00:20:45 10° N visible
08 May 4.2 22:19:04 15° NE 22:19:04 15° NE 22:20:11 10° NE visible
09 May 3.8 00:00:45 31° NNW 00:00:45 31° NNW 00:04:30 10° N visible
09 May 4.1 22:02:21 15° ENE 22:02:21 15° ENE 22:03:43 10° NE visible
09 May 3.5 23:44:01 36° NW 23:44:01 36° NW 23:48:15 10° N visible
